Location: Bosmont
(49.7318°N, 3.8587°E)
Time: 22:49:02
(UTC+00:00)

USA 186 - Pass Details

Date: 08 February 2023
Orbit: 389 x 439 km, 97.2° (Epoch: 30 March)

Event Time Altitude Azimuth Distance (km) Brightness Sun altitude
Exits shadow 18:50:18 14° 5° (N) 1,324 4.2 -19.6°
Drops below altitude 10° 18:50:50 10° 2° (N) 1,533 4.6 -19.7°
Sets 18:52:54 0° 354° (N) 2,394 5.7 -20.0°
